GW5486 Weather Reports


Display with metric or nautical units.
time (UTC)temp
F
wind
direction
speed
MPH
gust
MPH
rain 1hr
in
rain 24hr
in
rain mn
in
humidity
%
barometer
mb
20260506165012 56 38 1.0 5.0 0.00 0.00 0.00 63 1021.6
20260506164545 56 98 1.0 5.0 0.00 0.00 0.00 63 1021.7
20260506164011 55 229 0.0 5.0 0.00 0.00 0.00 62 1021.6
20260506163509 55 42 2.0 5.0 0.00 0.00 0.00 62 1021.5
20260506163037 55 360 2.0 6.0 0.00 0.00 0.00 63 1021.5
20260506162512 55 331 1.0 4.0 0.00 0.00 0.00 64 1021.4
20260506162011 55 39 2.0 4.0 0.00 0.00 0.00 63 1021.5
20260506161535 54 222 1.0 3.0 0.00 0.00 0.00 62 1021.5
20260506161014 54 47 1.0 3.0 0.00 0.00 0.00 65 1021.5
20260506160511 53 21 2.0 6.0 0.00 0.00 0.00 66 1021.5
20260506160034 53 76 2.0 6.0 0.00 0.00 0.00 68 1021.4
20260506155511 53 74 1.0 4.0 0.00 0.00 0.00 69 1021.5
20260506155013 52 73 1.0 4.0 0.00 0.00 0.00 69 1021.6
20260506154532 52 72 1.0 4.0 0.00 0.00 0.00 70 1021.5
20260506154011 51 5 1.0 4.0 0.00 0.00 0.00 69 1021.5
20260506153511 51 79 1.0 4.0 0.00 0.00 0.00 71 1021.5
20260506153029 51 29 2.0 4.0 0.00 0.00 0.00 69 1021.5
20260506152512 51 44 1.0 4.0 0.00 0.00 0.00 72 1021.8
20260506152011 50 74 2.0 6.0 0.00 0.00 0.00 71 1021.8
20260506151538 50 59 2.0 6.0 0.00 0.00 0.00 72 1021.7
20260506151011 50 129 1.0 5.0 0.00 0.00 0.00 72 1021.8
20260506150510 50 80 1.0 4.0 0.00 0.00 0.00 73 1021.7
20260506150030 50 67 1.0 4.0 0.00 0.00 0.00 72 1021.8
20260506145510 50 34 2.0 4.0 0.00 0.00 0.00 71 1021.6
20260506145012 49 62 0.0 3.0 0.00 0.00 0.00 72 1021.4
20260506144530 49 17 1.0 4.0 0.00 0.00 0.00 72 1021.4
20260506144014 49 30 1.0 3.0 0.00 0.00 0.00 74 1021.4
20260506143512 49 84 0.0 3.0 0.00 0.00 0.00 75 1021.5
20260506143037 48 340 1.0 4.0 0.00 0.00 0.00 75 1021.5
20260506142513 48 5 1.0 4.0 0.00 0.00 0.00 76 1021.4
20260506142010 48 360 1.0 3.0 0.00 0.00 0.00 75 1021.4
20260506141540 47 40 0.0 4.0 0.00 0.00 0.00 77 1021.2
20260506141013 47 80 0.0 3.0 0.00 0.00 0.00 79 1021.2
20260506140511 46 61 1.0 3.0 0.00 0.00 0.00 80 1020.9
20260506140032 45 286 0.0 2.0 0.00 0.00 0.00 81 1020.9
20260506135510 44 286 0.0 2.0 0.00 0.00 0.00 83 1020.9
20260506135012 43 254 0.0 2.0 0.00 0.00 0.00 84 1020.9
20260506134532 42 246 0.0 3.0 0.00 0.00 0.00 85 1021.0
20260506134014 42 246 1.0 3.0 0.00 0.00 0.00 85 1021.0
20260506133512 42 223 0.0 2.0 0.00 0.00 0.00 85 1020.9
20260506133031 42 211 1.0 2.0 0.00 0.00 0.00 85 1020.9
20260506132510 42 211 0.0 1.0 0.00 0.00 0.00 85 1020.8
20260506132010 41 211 0.0 2.0 0.00 0.00 0.00 85 1020.9
20260506131533 41 211 1.0 2.0 0.00 0.00 0.00 85 1020.9
20260506131011 41 211 0.0 2.0 0.00 0.00 0.00 85 1020.8
20260506130510 41 211 1.0 3.0 0.00 0.00 0.00 85 1020.8
20260506130030 42 194 2.0 3.0 0.00 0.00 0.00 84 1020.8
20260506125514 42 258 0.0 2.0 0.00 0.00 0.00 85 1020.8
20260506125012 42 258 0.0 2.0 0.00 0.00 0.00 84 1020.8
20260506124530 42 258 1.0 3.0 0.00 0.00 0.00 85 1020.7
20260506124010 42 222 2.0 3.0 0.00 0.00 0.00 84 1020.6
20260506123510 42 257 0.0 2.0 0.00 0.00 0.00 83 1020.7
20260506123040 42 257 1.0 2.0 0.00 0.00 0.00 84 1020.6
20260506122512 42 229 0.0 2.0 0.00 0.00 0.00 84 1020.5
20260506122013 42 227 0.0 2.0 0.00 0.00 0.00 84 1020.5
20260506121540 42 239 0.0 2.0 0.00 0.00 0.00 83 1020.4
20260506121013 42 239 1.0 2.0 0.00 0.00 0.00 83 1020.4
20260506120515 42 250 1.0 2.0 0.00 0.00 0.00 85 1020.4
20260506120052 42 257 1.0 3.0 0.00 0.00 0.00 85 1020.4
20260506115512 42 242 1.0 3.0 0.00 0.00 0.00 85 1020.3
20260506115011 42 281 0.0 3.0 0.00 0.00 0.00 84 1020.3
20260506114534 42 227 1.0 3.0 0.00 0.00 0.00 85 1020.2
20260506114013 42 256 1.0 2.0 0.00 0.00 0.00 86 1020.2
20260506113512 41 259 1.0 3.0 0.00 0.00 0.00 85 1020.3
20260506113038 41 217 1.0 3.0 0.00 0.00 0.00 86 1020.2
20260506112512 41 219 0.0 2.0 0.00 0.00 0.00 86 1020.4
20260506112010 41 219 1.0 2.0 0.00 0.00 0.00 85 1020.3
20260506111541 41 219 0.0 2.0 0.00 0.00 0.00 85 1020.4
20260506111012 41 244 0.0 2.0 0.00 0.00 0.00 84 1020.2
20260506110511 42 291 1.0 2.0 0.00 0.00 0.00 85 1020.1
20260506110037 42 291 0.0 3.0 0.00 0.00 0.00 85 1020.0
20260506105511 41 291 1.0 3.0 0.00 0.00 0.00 86 1020.1
20260506105011 41 286 1.0 2.0 0.00 0.00 0.00 85 1019.9
20260506104547 41 198 1.0 2.0 0.00 0.00 0.00 86 1019.9
20260506104019 41 197 0.0 2.0 0.00 0.00 0.00 85 1020.0
20260506103512 41 271 0.0 3.0 0.00 0.00 0.00 86 1019.9
20260506103044 41 30 0.0 2.0 0.00 0.00 0.00 84 1020.1
20260506102518 41 95 1.0 2.0 0.00 0.00 0.00 84 1020.0
20260506102011 42 95 0.0 2.0 0.00 0.00 0.00 85 1019.9
20260506101535 42 167 0.0 2.0 0.00 0.00 0.00 84 1019.9
20260506101011 42 267 1.0 2.0 0.00 0.00 0.00 84 1019.7
20260506100516 42 242 0.0 2.0 0.00 0.00 0.00 85 1019.7
20260506100042 42 217 0.0 1.0 0.00 0.00 0.00 83 1019.8
20260506095513 42 217 0.0 2.0 0.00 0.00 0.00 83 1019.7
20260506095014 42 219 0.0 4.0 0.00 0.00 0.00 83 1019.8
20260506094538 42 205 2.0 4.0 0.00 0.00 0.00 83 1019.7
20260506094012 42 166 1.0 3.0 0.00 0.00 0.00 82 1019.7
20260506093513 43 283 1.0 2.0 0.00 0.00 0.00 82 1019.7
20260506093037 43 283 0.0 2.0 0.00 0.00 0.00 82 1019.7
20260506092511 43 283 1.0 2.0 0.00 0.00 0.00 82 1019.6
20260506092014 43 284 1.0 2.0 0.00 0.00 0.00 82 1019.6
20260506091537 43 252 0.0 1.0 0.00 0.00 0.00 81 1019.6
20260506091012 43 240 0.0 2.0 0.00 0.00 0.00 81 1019.5
20260506090510 42 240 0.0 2.0 0.00 0.00 0.00 82 1019.5
20260506090038 42 238 1.0 2.0 0.00 0.00 0.00 82 1019.6
20260506085512 42 214 0.0 2.0 0.00 0.00 0.00 81 1019.4
20260506085011 43 195 0.0 3.0 0.00 0.00 0.00 79 1019.6
20260506084610 43 190 2.0 3.0 0.00 0.00 0.00 78 1019.6
20260506084017 44 214 1.0 2.0 0.00 0.00 0.00 79 1019.6
20260506083512 44 259 1.0 2.0 0.00 0.00 0.00 78 1019.6
20260506083043 44 207 0.0 3.0 0.00 0.00 0.00 78 1019.6
20260506082513 43 185 1.0 4.0 0.00 0.00 0.00 78 1019.6
20260506082013 44 196 1.0 4.0 0.00 0.00 0.00 79 1019.7
20260506081549 44 230 0.0 4.0 0.00 0.00 0.00 78 1019.7
20260506081011 44 207 2.0 3.0 0.00 0.00 0.00 77 1019.8
20260506080514 44 206 1.0 4.0 0.00 0.00 0.00 77 1019.7
20260506073512 46 207 2.0 7.0 0.00 0.00 0.00 73 1019.5
20260506073038 46 190 3.0 10.0 0.00 0.00 0.00 72 1019.4
20260506072512 47 205 3.0 10.0 0.00 0.00 0.00 72 1019.3
20260506072013 46 196 0.0 3.0 0.00 0.00 0.00 72 1019.3
20260506071541 47 223 1.0 7.0 0.00 0.00 0.00 72 1019.3
20260506071010 47 182 2.0 7.0 0.00 0.00 0.00 72 1019.3
20260506070513 47 137 2.0 5.0 0.00 0.00 0.00 71 1019.2
20260506062512 48 178 2.0 7.0 0.00 0.00 0.00 70 1018.9
20260506062011 48 202 3.0 14.0 0.00 0.00 0.00 69 1018.9
20260506061535 48 138 1.0 8.0 0.00 0.00 0.00 68 1018.8
20260506061012 49 221 3.0 13.0 0.00 0.00 0.00 68 1018.8
20260506060515 49 258 3.0 15.0 0.00 0.00 0.00 67 1018.8
20260506051014 48 262 3.0 11.0 0.00 0.00 0.00 69 1018.1
20260506050514 49 347 2.0 11.0 0.00 0.00 0.00 68 1018.1
20260506045013 48 315 2.0 8.0 0.00 0.00 0.00 70 1018.3
20260506044539 48 191 2.0 8.0 0.00 0.00 0.00 71 1018.2
20260506044013 47 207 2.0 7.0 0.00 0.00 0.00 72 1018.2
20260506043511 47 188 1.0 12.0 0.00 0.00 0.00 72 1018.2
20260506043045 47 227 2.0 12.0 0.00 0.00 0.00 71 1018.1
20260506042512 47 187 3.0 7.0 0.00 0.00 0.00 71 1018.0
20260506042014 48 197 2.0 5.0 0.00 0.00 0.00 70 1018.0
20260506041543 48 207 1.0 8.0 0.00 0.00 0.00 69 1017.9
20260506041013 49 192 4.0 8.0 0.00 0.00 0.00 68 1017.8
20260506040512 49 259 2.0 10.0 0.00 0.00 0.00 68 1017.7
20260506040040 49 282 6.0 11.0 0.00 0.00 0.00 67 1017.7
20260506035513 49 283 6.0 11.0 0.00 0.00 0.00 68 1017.6
20260506035013 49 295 6.0 11.0 0.00 0.00 0.00 68 1017.8
20260506034537 49 273 6.0 14.0 0.00 0.00 0.00 69 1017.5
20260506034014 49 294 8.0 16.0 0.00 0.00 0.00 69 1017.5
20260506033514 49 304 7.0 14.0 0.00 0.00 0.00 68 1017.3
20260506033038 49 309 8.0 14.0 0.00 0.00 0.00 68 1017.3
20260506032514 49 279 8.0 13.0 0.00 0.00 0.00 68 1017.1
20260506032015 49 306 5.0 17.0 0.00 0.00 0.00 68 1017.2
20260506031541 49 279 7.0 17.0 0.00 0.00 0.00 67 1017.0
20260506031014 49 288 7.0 15.0 0.00 0.00 0.00 68 1017.0
20260506030516 49 279 7.0 14.0 0.00 0.00 0.00 67 1016.9
20260506030040 49 330 7.0 17.0 0.00 0.00 0.00 68 1016.9
20260506025514 49 261 9.0 17.0 0.00 0.00 0.00 66 1016.7
20260506025017 49 284 9.0 15.0 0.00 0.00 0.00 67 1016.7
20260506024539 49 257 8.0 17.0 0.00 0.00 0.00 68 1016.7
20260506024014 49 325 10.0 17.0 0.00 0.00 0.00 68 1016.6
20260506023516 49 288 8.0 14.0 0.00 0.00 0.00 68 1016.5
20260506023102 49 301 9.0 14.0 0.00 0.00 0.00 68 1016.2
20260506022513 49 246 8.0 13.0 0.00 0.00 0.00 67 1016.2
20260506022017 49 337 6.0 14.0 0.00 0.00 0.00 67 1016.1
20260506021600 49 273 9.0 16.0 0.00 0.00 0.00 67 1016.3
20260506021018 49 294 8.0 16.0 0.00 0.00 0.00 66 1016.1
20260506020516 49 277 10.0 16.0 0.00 0.00 0.00 67 1015.9
20260506020035 49 290 6.0 16.0 0.00 0.00 0.00 68 1016.0
20260506015512 49 274 7.0 16.0 0.00 0.00 0.00 67 1015.9
20260506015012 49 291 6.0 17.0 0.00 0.00 0.00 67 1015.7
20260506014544 49 338 9.0 18.0 0.00 0.00 0.00 68 1015.9
20260506014015 49 290 10.0 20.0 0.00 0.00 0.00 66 1015.9
20260506013516 49 274 10.0 20.0 0.00 0.00 0.00 66 1015.9
20260506013053 49 230 5.0 19.0 0.00 0.00 0.00 69 1016.0
20260506012512 49 253 8.0 19.0 0.00 0.00 0.00 68 1015.7
20260506012015 49 269 7.0 16.0 0.00 0.00 0.00 68 1015.8
20260506011537 49 250 7.0 17.0 0.00 0.00 0.00 69 1015.8
20260506011013 49 283 9.0 18.0 0.00 0.00 0.00 69 1015.7
20260506010513 50 310 8.0 18.0 0.00 0.00 0.00 68 1015.6
20260506010039 50 269 5.0 13.0 0.00 0.00 0.00 69 1015.8
20260506005514 49 315 8.0 23.0 0.00 0.00 0.00 69 1015.7
20260506005017 50 315 8.0 22.0 0.00 0.00 0.00 69 1015.4
20260506004537 50 302 7.0 17.0 0.00 0.00 0.00 69 1015.6
20260506004016 49 251 10.0 21.0 0.00 0.00 0.00 68 1015.4
20260506003517 49 265 12.0 21.0 0.00 0.00 0.00 69 1015.3
20260506003035 49 297 11.0 21.0 0.00 0.00 0.00 69 1015.3
20260506002516 49 278 10.0 18.0 0.00 0.00 0.00 68 1015.6
20260506002017 49 269 6.0 18.0 0.00 0.00 0.00 68 1015.6
20260506001542 49 282 6.0 13.0 0.00 0.00 0.00 72 1016.0
20260506001013 49 284 9.0 15.0 0.00 0.00 0.00 72 1015.9
20260506000515 49 300 8.0 16.0 0.00 0.00 0.00 73 1015.7
20260506000044 49 273 9.0 16.0 0.00 0.00 0.00 74 1015.6
20260505235516 50 315 8.0 13.0 0.00 0.00 0.00 72 1015.7
20260505235013 50 281 5.0 15.0 0.00 0.00 0.00 71 1015.7
20260505234551 50 261 8.0 19.0 0.00 0.00 0.00 70 1015.6
20260505234016 51 346 8.0 19.0 0.00 0.00 0.00 68 1015.6
20260505233514 51 309 5.0 14.0 0.00 0.00 0.00 67 1015.5
20260505233039 51 205 4.0 14.0 0.00 0.00 0.00 68 1015.5
20260505232512 50 17 5.0 14.0 0.00 0.00 0.00 70 1015.6
20260505232017 51 291 7.0 14.0 0.00 0.00 0.00 68 1015.7
20260505231603 50 242 5.0 14.0 0.00 0.00 0.00 70 1015.7
20260505231016 51 221 6.0 14.0 0.00 0.00 0.00 71 1015.7
20260505230514 50 189 4.0 15.0 0.00 0.00 0.00 71 1015.5
20260505230037 49 256 3.0 12.0 0.00 0.00 0.00 74 1015.4
20260505225516 49 300 4.0 13.0 0.00 0.00 0.00 75 1015.7
20260505225015 49 317 5.0 13.0 0.00 0.00 0.00 76 1015.8
20260505224546 49 71 3.0 9.0 0.00 0.00 0.00 77 1015.9
20260505224016 49 20 3.0 9.0 0.00 0.00 0.00 77 1015.8
20260505223516 49 340 2.0 12.0 0.00 0.00 0.00 76 1016.0
20260505223042 49 65 4.0 16.0 0.00 0.00 0.00 75 1016.1
20260505222517 49 333 8.0 16.0 0.00 0.00 0.00 74 1015.9
20260505222013 49 10 8.0 24.0 0.00 0.00 0.00 75 1016.0
20260505221537 50 346 9.0 24.0 0.00 0.00 0.00 73 1016.0
20260505221016 50 273 5.0 11.0 0.00 0.00 0.00 73 1016.0
20260505220519 50 341 4.0 16.0 0.00 0.00 0.00 74 1016.0
20260505220054 50 350 8.0 19.0 0.00 0.00 0.00 73 1016.1
20260505215515 51 293 6.0 14.0 0.00 0.00 0.00 70 1016.1
20260505215017 52 256 5.0 11.0 0.00 0.00 0.00 68 1016.1
20260505214550 52 5 4.0 13.0 0.00 0.00 0.00 68 1016.1
20260505214018 52 304 6.0 17.0 0.00 0.00 0.00 68 1016.0
20260505213517 51 286 6.0 17.0 0.00 0.00 0.00 67 1016.0
20260505213042 51 298 6.0 17.0 0.00 0.00 0.00 68 1016.1
20260505212514 51 297 10.0 17.0 0.00 0.00 0.00 67 1016.0
20260505212015 52 294 5.0 15.0 0.00 0.00 0.00 68 1016.0
20260505211545 52 108 1.0 15.0 0.00 0.00 0.00 69 1016.2
20260505211013 51 291 6.0 20.0 0.00 0.00 0.00 68 1016.0
20260505210513 51 290 9.0 20.0 0.00 0.00 0.00 67 1016.0
20260505210047 52 290 4.0 16.0 0.00 0.00 0.00 67 1016.0
20260505205518 52 196 4.0 15.0 0.00 0.00 0.00 67 1016.0
20260505205016 51 292 8.0 16.0 0.00 0.00 0.00 67 1016.0
20260505204544 52 11 8.0 16.0 0.00 0.00 0.00 67 1016.0
20260505204016 52 261 8.0 12.0 0.00 0.00 0.00 67 1016.1
20260505203514 52 223 7.0 20.0 0.00 0.00 0.00 68 1015.9
20260505203105 52 290 7.0 20.0 0.00 0.00 0.00 65 1015.7
20260505202514 53 269 9.0 17.0 0.00 0.00 0.00 64 1015.9
20260505202019 52 252 4.0 11.0 0.00 0.00 0.00 66 1016.0
20260505201546 53 213 6.0 12.0 0.00 0.00 0.00 63 1016.0
20260505201016 53 352 7.0 15.0 0.00 0.00 0.00 63 1015.9
20260505200701 53 344 8.0 17.0 0.00 0.00 0.00 63 1015.9
20260505200043 53 271 7.0 14.0 0.00 0.00 0.00 65 1016.1
20260505195515 53 9 6.0 17.0 0.00 0.00 0.00 65 1015.9
20260505195014 52 333 7.0 17.0 0.00 0.00 0.00 65 1016.0
20260505194532 52 302 10.0 21.0 0.00 0.00 0.00 64 1016.0
20260505194015 53 319 12.0 22.0 0.00 0.00 0.00 62 1015.9
20260505193512 53 296 5.0 16.0 0.00 0.00 0.00 65 1015.8
20260505193034 52 292 7.0 19.0 0.00 0.00 0.00 64 1015.7
20260505192513 51 281 10.0 19.0 0.00 0.00 0.00 64 1015.6
20260505192014 52 261 9.0 19.0 0.00 0.00 0.00 65 1015.7
20260505191539 51 325 9.0 19.0 0.00 0.00 0.00 66 1015.7
20260505191013 52 240 8.0 18.0 0.00 0.00 0.00 66 1015.7
20260505190513 52 294 8.0 19.0 0.00 0.00 0.00 64 1015.5
20260505190034 52 271 11.0 19.0 0.00 0.00 0.00 65 1015.7
20260505185518 52 256 9.0 19.0 0.00 0.00 0.00 65 1015.5
20260505185012 52 255 9.0 18.0 0.00 0.00 0.00 66 1015.6
20260505184535 52 257 8.0 18.0 0.00 0.00 0.00 66 1015.6
20260505184012 51 294 10.0 18.0 0.00 0.00 0.00 65 1015.5
20260505183512 52 291 9.0 17.0 0.00 0.00 0.00 65 1015.4
20260505183031 52 256 10.0 18.0 0.00 0.00 0.00 65 1015.5
20260505182513 52 342 9.0 20.0 0.00 0.00 0.00 67 1015.5
20260505182012 52 309 12.0 20.0 0.00 0.00 0.00 65 1015.2
20260505181543 51 281 8.0 19.0 0.00 0.00 0.00 67 1015.3
20260505181013 52 259 9.0 18.0 0.00 0.00 0.00 65 1015.3
20260505180511 51 271 7.0 19.0 0.00 0.00 0.00 66 1015.2
20260505180033 51 266 7.0 19.0 0.00 0.00 0.00 67 1015.1
20260505175513 52 292 8.0 16.0 0.00 0.00 0.00 66 1015.3
20260505175011 51 272 7.0 16.0 0.00 0.00 0.00 68 1015.2
20260505174540 50 297 9.0 16.0 0.00 0.00 0.00 69 1015.0
20260505174014 50 333 6.0 13.0 0.00 0.00 0.00 69 1015.0
20260505173513 50 299 5.0 16.0 0.00 0.00 0.00 72 1015.0
20260505173034 49 334 8.0 16.0 0.00 0.00 0.00 72 1015.1
20260505172515 49 282 6.0 16.0 0.00 0.00 0.00 73 1015.1
20260505172013 49 257 8.0 14.0 0.00 0.00 0.00 73 1015.1
20260505171533 49 329 3.0 14.0 0.00 0.00 0.00 73 1015.1
20260505171013 49 233 4.0 14.0 0.00 0.00 0.00 74 1015.2
20260505170513 48 338 4.0 11.0 0.00 0.00 0.00 75 1015.1
20260505170043 48 5 4.0 11.0 0.00 0.00 0.00 75 1015.1
20260505165513 48 293 4.0 10.0 0.00 0.00 0.00 75 1015.2